Regional Weather Roundup
Issued by NWS

Home | Current Version | Previous Version | Text Only | Print | Product List | Glossary On
Versions: 1 2 3 4 5 6 7 8 9 10 11 12 13 14 15 16 17 18 19 20 21 22 23 24 25 26 27 28 29 30 31 32 33 34 35 36 37 38 39 40 41 42 43 44 45 46 47 48 49 50
000
ASUS44 KJAN 222010
RWRMS

MISSISSIPPI HOURLY WEATHER ROUNDUP
NATIONAL WEATHER SERVICE JACKSON MS
300 PM CDT FRI MAY 22 2015

NOTE: "FAIR: INDICATES FEW OR NO CLOUDS BELOW 12,000 FEET WITH NO
SIGNIFICANT WEATHER AND/OR OBSTRUCTIONS TO VISIBILITY.

MSZ001>002-007>008-010>013-018>021-025>028-034>036-222100-
NORTHWEST MISSISSIPPI

CITY           SKY/WX    TMP DP  RH WIND       PRES   REMARKS
CLARKSDALE     FAIR      72  54  53 CALM      30.23F
CLEVELAND      FAIR      72  53  51 NE10      30.22F
GREENWOOD      SUNNY     76  50  40 N7        30.21F
GREENVILLE     SUNNY     74  52  46 E10       30.21F
OLIVE BRANCH   MOSUNNY   72  46  40 E7        30.25F
OXFORD         FAIR      72  48  43 E7        30.25F
TUNICA         CLEAR     70  50  49 NE6       30.25F
$$

MSZ003>006-009-014>017-022>024-029>033-037>039-222100-
NORTHEAST MISSISSIPPI

CITY           SKY/WX    TMP DP  RH WIND       PRES   REMARKS
COLUMBUS AFB   SUNNY     77  50  39 VRB7      30.22F
CORINTH        FAIR      72  46  40 VRB5      30.24F
GOLDN TRIANGLE SUNNY     73  52  46 NE7       30.22F
STARKVILLE     FAIR      73  50  43 NE7       30.22F
TUPELO         SUNNY     73  46  38 NE8       30.23F
$$

MSZ040-058-222100-
CENTRAL MISSISSIPPI

CITY           SKY/WX    TMP DP  RH WIND       PRES   REMARKS
JACKSON INTL   PTSUNNY   75  52  44 NE9       30.20F
JACKSON HAWKNS MOSUNNY   74  53  48 E6        30.20F
MERIDIAN KEY   MOSUNNY   76  50  40 NE9       30.20F
MERIDIAN NAS   PTSUNNY   75  50  41 NE7       30.22S
RAYMOND        FAIR      75  70  83 E8        30.19F
VICKSBURG      SUNNY     75  54  47 VRB6      30.19F
$$

MSZ059>079-222100-
SOUTH MISSISSIPPI

CITY           SKY/WX    TMP DP  RH WIND       PRES   REMARKS
BROOKHAVEN     FAIR      75  64  69 N7        30.20S
HATTIESBURG    SUNNY     79  58  48 VRB7      30.18F
MCCOMB         SUNNY     78  64  61 E6        30.17F
NATCHEZ        MOSUNNY   75  63  64 CALM      30.18F
PINE BELT      SUNNY     79  55  44 CALM      30.20S
$$

MSZ080>082-222100-
COASTAL MISSISSIPPI

CITY           SKY/WX    TMP DP  RH WIND       PRES   REMARKS
BAY ST LOUIS   MOSUNNY   81  61  50 MISG      30.15S
BILOXI         SUNNY     82  64  56 NE5       30.14F
PASCAGOULA     SUNNY     81  62  52 VRB3      30.15F
GULFPORT       PTSUNNY   82  63  52 VRB3      30.14F
$$


USA.gov is the U.S. government's official web portal to all federal, state and local government web resources and services.